www.pogodaiklimat.ru

Погода и климат >> Архив погоды >> Боливия >> Puerto Suarez


ПОГОДА в Puerto Suarez

  • Прогноз погоды в Puerto Suarez
  • Монитор погоды в Puerto Suarez
  • Климат города

АРХИВ ПОГОДЫ в Puerto Suarez

Время (UTC), дата Ветер
(напр.,м/с)
 
Видим.   Явления Облачность Т
(С)
Тd
(С)
f
(%)
Тe
(С)
Тes
(С)
Комфортность P
(гПа)
Po
(гПа)
Тmin
(С)
Tmax
(С)
R
(мм)
R24
(мм)
S
(см)
12 17.05 штиль 0 8000 м осадки на расстоянии 9/5 400 м
[Sc Ac trans]
+21.3 +20.6 96 +27 +28 душно 1013.0 997.6 +16.3
15 17.05 В 3 30 км 9/8 450 м
[Sc Ac trans]
+26.7 +23.3 82 +36 +38 очень
душно
1011.8 996.4
18 17.05 штиль 0 50 км ?/? +26.5 +23.8 85 +36 +36 очень
душно
1009.5 994.2
21 17.05 В 3 30 км 6/6 450 м
[Cu med, cong]
+25.5 +24.1 92 +35 +35 очень
душно
1008.1 993.0 +27.8
00 18.05 В 3 30 км 6/6 450 м
[Cu med, cong]
+25.5 +24.1 92 +35 +35 очень
душно
1008.1 993.0 +27.8
12 18.05 В 3 8000 м дымка 10/8 360 м
[Sc Ac trans]
+24.5 +23.8 96 +33 +34 очень
душно
1009.6 994.4 +18.8
15 18.05 В 2 30 км 6/6 500 м
[Sc Ac trans]
+28.0 +25.3 85 +41 +46 опасность
перегрева
1009.1 993.8
18 18.05 С 5 30 км 9/6 500 м
[Cu med, cong Ac trans]
+30.0 +24.7 73 +43 +44 опасность
перегрева
1005.9 990.6
21 18.05 С 3 30 км 9/3 600 м
[Cu hum Ci]
+29.2 +25.7 81 +43 +43 опасность
перегрева
1005.1 989.8 +31.0
12 19.05 штиль 0 30 км 10/0 2000 м
[Ac trans Ci]
+25.5 +23.4 88 +34 +37 очень
душно
1007.8 992.6 +19.2
15 19.05 С 3 30 км дым 9/5 500 м
[Cu med, cong Ci]
+30.0 +26.0 79 +45 +49 опасность
перегрева
1007.3 992.2
18 19.05 С 3 15 км гроза без осадков 9/9 500 м
[Cb cap Ci]
+28.0 +24.7 82 +40 +40 очень
душно
1005.0 989.8
21 19.05 Ю 3 8000 м осадки на расстоянии {гроза} 10/9 450 м
[Cb cap As op]
+24.5 +23.8 96 +33 +33 очень
душно
1005.2 990.0 +30.3
12 20.05 Ю 3 5000 м морось 10/10 300 м
[Sc]
+21.5 +21.5 100 +28 +28 очень
душно
1010.0 994.7 +18.8 4
15 20.05 штиль 0 30 км в посл. час морось 10/10 240 м
[Sc]
+21.5 +20.8 96 +27 +27 душно 1011.0 995.7
18 20.05 ЮЗ 3 4000 м слабая морось 10/10 240 м
[Sc]
+20.2 +20.2 100 +25 +25 комфорт 1010.3 995.0 4
21 20.05 ЮЗ 3 8000 м дымка {морось} 10/9 240 м
[Sc As op]
+19.4 +18.6 95 +22 +22 комфорт 1010.8 995.4 +22.4
12 21.05 штиль 0 200 м туман ?/? +19.0 +19.0 100 +21 +21 комфорт 1013.6 998.2 +16.0 5
15 21.05 ЮЗ 3 20 км 10/10 240 м
[Sc]
+20.8 +19.3 91 +26 +26 душно 1014.2 998.8
18 21.05 ЮЗ 3 20 км 10/10 300 м
[Sc]
+21.7 +19.5 87 +27 +27 душно 1012.7 997.4
21 21.05 штиль 0 20 км 10/10 300 м
[Sc]
+21.0 +18.8 87 +25 +25 комфорт 1012.3 996.8 +22.4
12 22.05 штиль 0 9000 м дымка 4/3 400 м
[Sc Ac trans]
+20.5 +19.8 96 +24 +27 комфорт 1013.3 998.0 +16.4
15 22.05 штиль 0 30 км 8/4 450 м
[Sc Ac trans]
+25.0 +20.2 75 +31 +37 очень
душно
1013.5 998.3
18 22.05 штиль 0 30 км 8/3 500 м
[Cu hum Ac trans]
+27.2 +22.8 77 +36 +41 очень
душно
1010.8 995.4
21 22.05 штиль 0 30 км 8/3 600 м
[Cu hum Ci]
+26.2 +23.2 84 +35 +35 очень
душно
1010.2 994.8 +27.8
12 23.05 штиль 0 20 км дым 9/5 450 м
[Sc Ac trans]
+25.3 +24.4 95 +35 +36 очень
душно
1014.0 998.6 +18.6
15 23.05 штиль 0 30 км 9/5 450 м
[Sc Ac trans]
+27.4 +24.0 82 +38 +42 очень
душно
1014.6 999.2
18 23.05 В 3 30 км 4/3 500 м
[Cu hum Ac trans]
+30.5 +25.9 76 +45 +50 опасность
перегрева
1010.7 995.5
21 23.05 штиль 0 30 км ясно +31.0 +25.0 70 +44 +44 опасность
перегрева
1010.0 994.6 +32.0

 

Местоположение метеостанции Puerto Suarez (Боливия): широта -18.98 долгота -57.81 высота над уровнем моря 134 м.

В архиве по умолчанию представлена погода в Puerto Suarez за последнюю неделю. Архивные данные за месяц целиком и за предыдущие месяцы, начиная с января 2011 года, Вы можете получить, выбрав интересующий диапазон дат из раскрывающегося списка и нажав кнопку "Ввод!".

Внимание! Время в таблицах - всемирное. Для получения местного времени необходимо прибавить поправку, которая в Puerto Suarez равна -4 ч.

Смотрите также архив погоды в соседних городах и на ближайших метеорологических станциях:

Погода в Robore (Боливия) (219 км)
Погода в San Matias (Боливия) (301 км)
Погода в Caceres (Бразилия) (326 км)
Погода в San Jose De Chiquit (Боливия) (335 км)
Погода в Puerto Casado (Парагвай) (367 км)
Погода в Campo Grande (Бразилия) (369 км)
Погода в Cuiaba (Бразилия) (412 км)
Погода в San Ignacio De Vela (Боливия) (442 км)
Погода в Mariscal Estigar (Парагвай) (445 км)
Погода в Ponta Pora (Бразилия) (452 км)

Пояснения к столбцам:

Ветер - указаны скорость ветра в м/с - средняя за 10 мин, порывы в срок и между сроками (в фигурных скобках) и направление, откуда дует ветер: С - северный, СВ - северо-восточный, В - восточный, ЮВ - юго-восточный, Ю - южный, ЮЗ - юго-западный, З - западный, СЗ - северо-западный.
Видимость - горизонтальная дальность видимости в метрах или километрах. При видимости от 1 до 10 км при отсутствии осадков обычно наблюдается дымка, при ухудшении видимости до 1 км и менее - туман. В сухую погоду видимость может ухудшаться дымом, пылью или мглою.
Явления - указаны атмосферные явления, наблюдавшиеся в срок или в последний час перед сроком; фигурными скобками обозначены явления, наблюдавшиеся между сроками (за 1-3 часа до срока); квадратными скобками обозначены град или гололедные отложения с указанием их диаметра в мм.
Облачность - указаны через наклонную черту общая и нижняя облачность в баллах и высота нижней границы облаков в метрах; квадратными скобками обозначены формы облаков: Ci - перистые, Cs - перисто-слоистые, Cc - перисто-кучевые, Ac - высококучевые, As - высокослоистые, Sc - слоисто-кучевые, Ns - слоисто-дождевые, Cu - кучевые, Cb - кучево-дождевые. Подробнее классификацию облаков см. в Атласе облаков (PDF).
T - Температура воздуха - температура, измеренная на высоте 2 м над землей.
Td - Температура точки росы - температура, при понижении до которой содержащийся в воздухе водяной пар достигнет насыщения.
f - Относительная влажность воздуха - влажноcть воздуха, измеренная на высоте 2 м над землей.
Te - Эффективная температура - температура, которую ощущает одетый по сезону человек в тени. Характеристика душности погоды. При расчете учитывается влияние влажности воздуха и скорости ветра на теплоощущения человека.
Tes - Эффективная температура на солнце - температура, которую ощущает человек, с поправкой на солнечный нагрев. Характеристика знойности погоды. Зависит от высоты солнца над горизонтом, облачности и скорости ветра. Ночью, в пасмурную погоду, а также при ветре 12 м/с и более поправка равна нулю.
P - Атмосферное давление - приведенное к уровню моря атмосферное давление.
Po - Атмосферное давление - измеренное на уровне метеостанции атмосферное давление.
Tmin - Минимальная температура - минимум температуры воздуха на высоте 2 м над землей.
Tmax - Максимальная температура - максимум температуры воздуха на высоте 2 м над землей.
R - Количество осадков - Количество выпавших осадков за период времени, мм. При наведении курсора мыши на число - период времени, за который выпало указанное количество осадков.
R24 - Количество осадков - Количество выпавших осадков за 24 часа, мм.
S - Снежный покров - Высота снежного покрова, см. При наведении курсора мыши на число - состояние снежного покрова и степень покрытия местности в баллах.